GFSNW_2pvu_pres_165.txt.gz
Presure
171 178 181 190 196 189 190 189 192 178 191 176 186 101 182 132 118 201 205 210 221 210 173 191 212 160 209 217 147 147 307 284 168 140 231 175 208 206 184 152 157 209 207 193
188 187 104 178 171 186 197 143 192 196 206 152 188 196 177 147 211 212 145 195 135 192 162 190 179 194 186 193 176 159 164 163 239 349 341 300 183 224 219 216 146 142 214 210
163 149 172 159 179 180 171 195 209 202 218 190 188 201 219 204 205 214 219 175 219 211 176 175 178 183 176 181 190 197 198 191 204 206 181 157 204 209 227 170 198 255 255 251
178 184 171 156 190 188 200 193 197 169 182 219 199 197 178 165 176 134 140 212 165 151 215 208 173 168 165 173 160 188 187 198 184 193 191 191 197 199 202 201 199 197 208 197
182 180 179 175 184 185 198 157 176 193 190 180 218 215 188 149 208 162 177 192 212 198 169 152 179 149 190 143 149 202 157 141 186 179 188 178 190 187 177 176 181 182 183 192
161 152 183 171 194 173 193 212 193 190 211 191 190 170 168 163 154 181 174 151 183 213 147 187 195 204 167 203 203 172 143 162 174 138 193 169 189 171 183 181 185 183 190 191
183 179 161 152 193 172 174 186 205 183 203 168 186 170 178 215 215 192 149 206 158 147 221 172 210 186 209 185 178 176 180 167 154 181 170 161 175 185 142 169 148 179 183 176
175 174 198 206 175 172 180 188 178 188 183 188 198 170 196 205 200 205 206 189 163 171 218 158 195 202 207 200 216 209 203 183 202 183 167 167 169 188 222 169 136 166 174 199
190 178 202 173 165 196 196 179 184 205 167 196 196 193 204 192 183 195 206 201 202 137 222 182 184 209 157 207 184 209 155 194 169 192 221 206 209 199 217 210 152 157 214 142
181 183 183 197 163 185 188 205 173 190 186 187 172 196 189 191 194 201 199 177 177 209 182 151 195 169 153 214 180 167 205 172 163 207 170 194 213 216 188 211 183 208 206 211
184 187 173 173 186 162 175 179 192 195 152 186 173 169 167 178 162 178 181 183 182 188 192 208 149 143 202 167 224 217 216 199 195 196 214 215 177 210 207 208 212 215 218 202
172 171 181 205 193 205 158 170 174 170 174 185 196 203 160 176 205 171 182 193 168 194 186 193 171 186 187 189 227 225 222 213 218 219 212 216 221 218 217 192 217 210 212 221
182 198 205 214 202 197 177 193 177 179 195 184 180 186 189 168 194 199 191 205 193 197 212 211 210 220 219 211 191 239 211 222 220 218 216 212 190 222 220 217 212 215 230 230
202 209 187 167 173 182 189 174 185 192 185 178 178 163 177 179 183 181 197 196 170 201 214 199 195 194 181 177 202 201 222 202 213 246 237 181 223 221 222 214 225 222 223 210
170 177 178 211 198 201 178 203 186 191 167 164 170 150 174 192 177 181 202 197 200 181 200 204 195 192 181 198 239 198 131 203 192 194 201 217 219 221 210 231 191 229 225 229
194 209 194 193 188 186 186 197 195 179 191 205 212 197 182 190 181 178 209 200 197 213 206 202 201 202 202 213 206 229 184 190 246 220 208 242 244 241 181 181 234 123 219 209
192 185 184 180 198 200 190 199 188 190 194 205 198 187 166 186 193 209 179 191 200 202 213 202 210 184 211 236 206 203 212 218 203 220 215 224 121 228 242 248 212 260 245 244
195 211 187 184 202 196 189 197 203 184 191 207 205 196 186 168 207 208 219 205 208 207 201 227 204 204 216 222 209 236 231 223 219 265 225 238 218 253 223 250 248 252 253 235
192 200 195 208 196 204 203 179 190 210 189 209 205 198 197 201 210 208 205 222 197 201 215 203 244 195 252 233 216 215 198 211 217 281 224 245 247 103 227 265 281 276 276 285
197 209 193 200 202 197 192 204 195 199 206 189 195 209 216 190 197 210 204 210 213 196 214 254 186 214 225 240 259 216 275 214 225 78 299 287 285 279 281 280 220 284 277 287
204 204 198 197 202 210 209 193 211 205 193 217 208 201 215 209 208 225 212 207 209 221 227 248 239 241 210 207 280 294 234 285 276 240 234 283 286 286 287 294 335 318 263 166
209 218 218 217 213 204 219 215 217 212 220 227 215 221 217 219 219 209 229 237 218 200 267 238 270 286 294 258 281 298 288 275 281 256 286 307 302 305 361 382 380 374 371 368
222 211 224 225 231 224 221 227 198 200 233 221 237 237 250 238 256 243 228 250 235 238 274 252 290 291 282 277 303 303 281 289 323 323 335 367 370 369 365 289 353 345 359 349
227 230 227 227 235 228 222 244 252 237 227 250 242 244 244 251 233 232 257 263 232 293 285 303 313 318 351 357 348 344 357 347 365 363 349 341 337 329 326 372 380 383 386 389
239 244 234 238 215 237 245 255 236 231 244 243 230 263 236 237 263 252 256 277 302 365 345 247 263 285 251 339 261 268 281 295 320 313 330 355 368 392 389 384 377 372 370 366
247 266 243 254 263 249 261 242 234 245 245 250 255 304 230 310 364 297 272 302 285 294 299 317 335 327 334 345 351 346 346 350 369 382 389 387 380 374 368 358 351 351 352 348
258 248 260 239 266 231 210 255 268 252 325 343 320 309 257 349 353 347 339 348 345 331 370 365 369 367 362 345 350 361 364 373 376 380 373 363 353 346 341 341 343 342 416 413

GFSNW_2pvu_pres_171.txt.gz
Presure
171 173 122 174 177 134 191 173 185 189 175 187 184 180 198 197 205 127 181 216 225 222 146 205 228 219 227 159 206 193 144 261 298 151 209 138 254 241 150 146 139 176 212 164
139 158 173 180 184 168 172 150 170 209 194 187 167 202 202 216 226 165 221 177 167 204 249 201 197 209 217 212 225 224 148 155 165 147 180 143 175 220 182 149 154 139 194 161
164 166 154 164 174 176 194 196 144 179 191 183 191 179 198 194 186 191 218 153 148 132 190 216 210 239 194 199 202 225 212 224 217 212 198 184 197 203 149 155 207 166 157 146
183 113 172 124 183 189 174 185 183 179 188 200 201 176 192 197 158 201 228 217 132 183 195 203 193 230 214 216 199 189 222 204 218 211 210 203 212 210 205 224 225 168 212 162
188 181 179 174 171 173 169 174 188 181 173 181 180 166 130 198 214 187 186 187 191 159 157 136 168 158 214 225 197 258 195 181 174 201 221 208 209 207 173 223 205 207 211 209
174 175 180 169 163 175 169 172 180 174 185 185 191 167 194 188 180 186 194 173 182 194 174 222 171 203 172 153 176 161 197 216 187 171 189 187 188 188 196 202 192 184 202 204
170 182 183 180 180 170 157 172 168 188 202 193 195 186 190 174 192 194 189 169 177 170 192 187 188 164 184 189 174 218 170 168 210 186 182 184 230 216 187 181 171 212 188 209
177 173 176 187 159 186 177 166 165 174 171 168 187 180 200 187 165 184 190 195 203 169 173 148 172 192 160 155 160 156 189 167 155 157 201 189 213 176 194 225 228 222 179 185
187 179 189 174 175 175 182 186 181 181 198 201 182 189 194 210 204 201 190 203 198 177 185 159 151 203 149 174 202 173 179 209 174 206 182 158 206 206 149 178 208 217 198 171
169 181 186 181 166 181 181 179 199 198 190 192 182 188 200 196 198 193 194 202 175 167 169 196 172 181 183 191 173 195 171 167 153 149 145 150 174 160 173 163 164 170 204 184
170 183 179 176 182 180 180 189 188 188 194 186 195 203 180 186 191 180 189 184 189 184 187 187 180 193 185 164 190 185 182 183 198 188 183 171 171 144 158 163 172 155 156 195
181 177 192 183 184 183 183 182 185 189 192 193 194 184 196 187 186 200 195 202 198 204 188 202 195 193 182 164 187 177 185 178 203 174 172 207 202 155 193 198 165 211 162 214
180 179 194 191 190 182 183 184 192 181 180 187 193 195 192 180 194 179 195 174 205 191 193 180 180 154 190 196 182 155 191 194 189 182 200 200 211 161 175 200 207 213 207 200
197 200 185 185 184 187 183 190 198 187 187 181 187 179 194 191 195 179 178 191 199 194 199 205 198 194 195 191 195 195 182 201 199 181 198 198 188 192 205 200 217 216 214 203
198 171 205 188 200 195 194 193 194 194 191 181 187 180 191 198 188 186 195 181 194 202 196 189 191 198 188 189 194 199 199 200 195 199 202 201 192 194 200 202 212 213 208 220
196 180 193 178 170 186 171 205 174 189 191 210 189 191 178 171 173 184 184 191 198 195 198 196 190 192 199 207 202 198 193 205 204 196 195 209 223 226 192 201 213 216 224 85
192 198 181 204 186 200 177 176 197 205 192 200 181 196 188 193 187 185 195 194 192 191 200 196 200 201 201 198 189 191 210 205 199 204 211 209 215 218 224 218 221 227 227 245
188 196 184 172 204 193 203 193 192 202 202 200 205 200 204 187 171 180 187 187 193 199 195 199 197 204 203 203 192 205 195 198 202 203 212 207 213 224 220 230 224 238 267 261
200 181 195 187 181 171 182 195 197 205 194 189 196 209 199 203 203 188 176 201 197 205 207 191 208 193 191 216 221 218 212 211 211 228 225 219 229 233 223 260 279 262 252 285
176 205 178 207 208 213 207 186 205 212 190 170 202 189 190 214 203 208 208 208 197 194 205 219 211 207 215 217 222 221 221 228 227 238 236 223 233 249 268 271 253 295 312 314
201 201 206 209 181 192 206 208 210 205 186 201 208 202 197 190 208 217 189 186 217 228 213 219 213 165 221 221 228 241 224 230 232 253 266 257 264 280 322 299 307 338 383 361
207 219 211 215 213 216 213 186 200 213 222 210 206 222 210 208 217 214 208 213 216 210 218 220 214 208 232 233 226 232 258 225 244 262 279 296 293 306 281 333 326 340 344 370
211 211 221 219 222 209 206 208 207 213 217 213 205 222 209 210 226 225 226 220 204 229 241 240 235 252 248 233 249 251 246 262 272 280 289 301 323 302 374 312 371 396 398 391
233 226 223 235 216 217 217 225 230 222 238 227 233 234 222 218 225 229 213 246 249 242 233 212 242 242 269 256 260 272 276 289 316 294 294 396 390 348 407 403 399 385 377 378
254 254 254 233 240 233 233 241 244 248 243 243 232 232 238 243 245 251 243 241 246 252 260 270 274 271 263 276 287 307 297 325 405 419 419 418 412 403 392 377 373 366 366 365
258 259 244 242 241 250 252 257 258 252 250 255 248 250 251 253 250 256 257 256 264 272 281 291 297 291 294 290 303 359 310 394 411 409 407 397 380 372 370 363 353 350 352 348
262 259 252 256 255 258 262 255 251 254 253 251 251 256 252 277 292 257 308 304 316 292 302 291 288 401 333 416 406 409 403 402 400 387 375 365 355 353 353 352 349 344 353 372

GFSNW_2pvu_pres_174.txt.gz
Presure
130 180 174 179 150 171 191 183 184 195 190 186 191 189 178 206 208 206 198 199 245 243 193 211 215 237 221 159 153 255 277 158 248 135 193 244 142 123 138 208 210 207 195 198
176 154 177 161 137 146 190 183 181 189 174 168 193 195 161 186 202 209 205 189 114 212 235 192 216 194 224 224 216 222 173 229 161 148 184 266 154 237 211 143 227 210 214 197
164 174 180 143 127 162 153 162 153 186 177 179 185 168 209 205 201 192 208 162 180 160 134 110 169 218 213 199 220 214 218 217 192 219 156 227 262 204 163 198 154 140 152 209
169 169 178 175 152 180 144 186 192 184 187 181 176 185 194 184 190 200 206 200 183 188 178 145 174 198 220 226 229 202 212 213 218 195 210 205 213 213 216 185 157 248 230 152
181 177 181 174 190 182 152 165 156 186 180 178 189 169 179 198 200 164 203 206 204 165 201 215 144 209 161 149 212 209 228 210 189 213 211 201 216 200 192 207 160 207 188 160
176 142 173 188 169 190 182 180 176 169 180 171 179 187 194 190 216 202 196 194 174 192 197 210 214 167 177 210 203 162 186 208 210 221 202 197 222 203 228 212 210 211 211 183
171 183 173 151 176 175 178 179 181 178 186 182 188 161 175 186 197 204 191 169 206 213 177 155 175 200 185 157 195 161 181 139 188 186 181 214 204 216 206 231 220 212 205 197
192 166 180 172 175 180 172 174 173 184 191 192 185 184 191 169 190 191 197 210 190 196 194 175 199 160 201 200 174 148 182 156 158 195 185 129 205 166 155 163 169 228 214 212
173 187 190 157 162 174 175 173 181 173 180 179 173 186 185 189 150 196 197 195 197 191 197 171 193 195 158 199 176 191 169 195 169 156 153 182 196 192 196 147 204 179 185 174
186 166 171 177 169 170 183 186 183 179 175 184 179 186 182 189 195 197 202 194 176 195 191 207 201 203 197 193 155 170 167 175 185 172 159 160 154 150 174 163 161 148 201 149
187 185 171 189 180 182 167 183 190 191 178 169 178 185 182 185 183 194 195 189 200 197 197 193 194 177 197 194 186 192 174 181 182 188 166 193 168 155 207 191 175 204 187 157
192 181 193 173 180 181 172 189 185 183 187 179 192 193 184 184 192 194 187 183 187 192 187 201 179 199 187 183 191 198 199 198 171 196 186 199 197 181 195 200 202 201 207 210
167 192 186 172 184 179 182 191 173 183 185 179 176 192 197 194 183 190 187 195 189 185 187 185 185 203 202 197 193 199 199 195 195 186 181 189 203 201 208 209 199 201 203 208
190 185 164 190 182 191 184 172 189 183 175 190 185 185 187 187 181 193 189 192 190 201 198 186 185 172 180 185 188 193 196 192 192 200 197 189 198 199 206 210 158 204 208 210
192 211 202 180 187 183 180 184 190 179 185 185 188 183 184 198 195 187 192 173 181 189 198 200 183 194 189 191 190 187 198 200 195 197 202 191 194 203 206 212 210 205 200 218
184 187 191 200 185 187 185 189 174 189 187 179 189 178 181 174 173 193 187 205 199 199 192 194 185 179 199 197 188 190 188 185 192 189 190 202 213 210 193 213 222 218 221 223
181 183 207 194 200 196 186 194 210 186 197 176 169 189 191 193 210 184 183 182 180 180 199 181 197 197 208 204 198 201 207 200 188 188 196 193 193 196 204 220 217 205 213 226
191 208 195 195 191 190 181 184 189 187 197 203 189 177 182 171 182 199 193 195 202 200 198 209 201 192 189 203 188 217 213 203 219 219 209 200 219 225 217 210 217 87 146 225
190 207 194 180 182 208 189 180 199 185 188 192 186 204 182 192 189 182 201 200 186 206 192 192 204 187 187 198 223 223 202 205 204 216 215 200 201 209 217 225 241 237 224 246
211 211 188 187 205 208 182 175 205 202 197 199 184 177 207 191 179 207 190 197 203 202 198 209 208 203 178 218 213 221 223 204 212 221 217 214 222 212 224 247 246 242 262 280
214 209 181 198 209 196 198 197 174 199 204 191 176 205 210 175 204 191 199 210 202 186 214 216 213 207 201 223 223 206 217 238 218 203 212 239 240 245 255 250 261 270 280 308
215 208 200 195 217 207 206 211 196 180 188 190 208 197 194 205 209 210 207 217 219 214 215 203 203 199 226 225 222 219 237 232 202 227 247 256 262 264 265 311 326 308 360 408
216 223 223 222 214 213 196 191 213 210 210 203 204 178 204 189 218 220 211 212 206 197 218 219 220 231 230 234 246 250 252 244 250 258 258 274 285 315 328 403 374 427 426 411
222 220 216 212 220 207 209 215 214 213 209 216 217 221 218 214 207 214 222 223 228 230 231 239 242 241 247 264 266 250 249 256 267 278 278 324 400 411 435 425 419 407 398 393
229 229 222 228 231 231 222 222 223 224 223 222 223 233 232 231 238 240 250 245 245 246 253 252 251 246 246 266 259 264 277 286 319 321 438 433 429 427 418 399 391 384 382 375
229 243 235 230 228 231 234 236 239 232 230 233 235 242 246 246 242 243 250 247 247 265 265 267 281 286 273 291 318 314 339 313 389 426 419 416 404 392 389 380 371 368 359 353
251 249 247 252 250 244 246 245 241 248 237 252 256 253 248 257 265 251 254 261 254 256 254 270 306 308 323 313 342 425 406 419 418 415 402 387 382 374 368 367 358 355 344 342

GFSNW_2pvu_pres_177.txt.gz
Presure
159 141 169 172 141 178 151 181 187 176 129 116 202 195 197 187 168 196 186 194 185 227 215 231 214 202 227 161 153 280 180 145 158 158 216 235 229 220 180 212 200 192 195 156
132 133 153 184 177 137 177 179 183 144 202 184 154 183 141 195 203 191 148 195 169 144 227 170 194 118 219 224 230 244 202 202 208 158 214 138 150 213 143 216 180 138 198 180
159 168 179 141 171 172 178 120 159 155 186 196 189 176 188 194 188 193 160 171 182 222 176 181 209 204 161 182 215 220 228 237 214 207 214 181 142 197 200 188 210 197 197 133
127 169 129 180 126 177 171 139 179 178 195 180 192 132 188 197 190 194 186 178 146 213 186 172 154 206 198 219 212 220 201 218 223 221 221 236 224 177 156 251 196 197 178 163
126 133 175 147 177 151 151 180 144 186 175 179 169 180 179 191 201 194 202 207 200 205 177 180 192 149 195 217 192 156 166 219 192 233 224 206 219 224 228 168 239 166 237 246
181 148 148 162 158 143 176 174 186 165 183 161 176 175 177 187 184 185 195 188 191 205 157 192 170 192 160 189 163 203 209 169 151 202 220 201 195 198 197 196 202 211 217 222
164 148 174 174 177 159 149 176 154 182 178 185 177 177 179 187 179 184 184 181 196 204 203 195 196 179 183 184 191 156 149 176 206 186 193 177 211 198 184 199 199 212 215 209
151 161 174 189 185 139 177 157 193 188 184 148 189 193 179 191 185 188 177 188 192 182 195 205 203 206 153 203 209 203 206 189 172 157 167 203 127 176 145 132 184 151 131 201
171 177 178 169 184 173 181 172 162 178 171 165 175 179 187 188 189 194 187 181 196 184 188 202 154 193 196 176 203 162 174 177 197 167 157 195 164 179 181 202 154 173 136 126
162 180 173 192 167 159 186 188 178 172 176 186 159 174 188 175 191 176 178 186 179 196 199 195 198 195 194 196 190 199 196 195 202 182 186 170 156 187 162 185 208 161 161 164
179 182 169 163 184 170 178 157 179 177 159 175 185 183 177 179 177 177 188 186 189 182 203 196 188 191 193 197 187 190 196 185 193 198 187 197 179 189 205 200 162 163 160 174
186 184 190 183 166 171 161 184 162 184 190 192 178 191 175 184 185 191 188 192 180 187 187 188 187 184 196 179 193 192 176 194 186 184 204 212 199 155 208 170 158 189 187 164
166 170 183 189 184 189 199 169 167 176 189 189 181 180 183 190 182 177 180 187 182 188 191 188 187 197 193 192 189 179 186 187 198 177 205 202 205 210 207 199 198 196 198 199
192 188 186 180 186 182 183 185 181 178 185 173 171 187 169 185 185 191 182 178 185 187 181 184 184 170 177 173 200 194 178 202 206 203 195 183 188 188 201 213 211 209 214 214
172 205 166 187 187 198 177 162 177 185 171 174 180 180 184 183 179 186 186 184 185 184 191 189 195 196 189 190 182 178 181 186 185 188 181 208 206 198 195 196 208 216 216 217
224 184 193 176 137 175 176 191 187 197 178 189 191 193 184 178 184 184 182 187 188 190 182 174 179 184 190 185 193 192 186 198 200 204 205 198 191 209 211 199 197 195 206 220
186 191 195 208 158 179 185 197 211 199 202 191 196 207 196 193 188 185 183 188 177 196 195 194 196 189 185 176 180 183 187 200 203 179 179 188 197 186 217 213 215 202 213 221
217 191 194 198 197 193 194 222 192 191 177 189 201 179 177 185 200 198 192 185 180 191 187 190 200 205 188 192 187 188 187 202 192 207 205 212 204 218 220 219 211 212 213 220
218 207 218 205 184 185 195 182 180 192 199 201 185 207 195 204 186 176 204 189 184 186 203 192 181 172 179 183 181 188 193 205 201 180 208 215 211 213 213 217 224 216 222 220
190 189 190 212 192 213 201 182 180 193 180 174 199 174 191 190 164 199 189 180 205 203 187 188 200 201 184 185 180 205 207 210 210 212 218 224 207 203 228 214 230 235 240 250
219 220 215 189 190 194 206 205 197 196 186 216 191 204 197 200 193 190 193 202 199 196 188 181 182 196 194 205 183 208 59 210 218 222 219 227 228 227 217 228 243 251 261 279
226 227 226 222 223 227 224 215 200 229 202 225 197 196 184 201 191 205 188 179 196 214 188 212 198 187 212 210 207 217 217 224 223 229 232 230 234 243 255 261 261 277 292 413
218 211 224 223 222 225 230 219 215 208 204 222 206 203 217 211 201 208 198 178 218 225 211 208 201 212 209 209 210 220 217 215 232 237 245 252 256 263 276 285 271 449 443 424
235 234 226 227 226 228 221 220 217 221 213 218 216 181 216 219 216 210 216 225 224 220 193 202 220 220 215 223 222 232 236 241 247 256 261 273 274 301 326 444 437 434 424 420
239 244 239 227 219 218 218 214 219 221 218 217 215 215 213 217 222 222 220 218 217 226 235 230 221 223 231 234 234 233 244 249 259 274 284 312 292 442 439 424 411 405 402 396
246 237 243 249 238 226 223 229 227 229 227 226 225 224 225 230 229 224 224 227 226 225 223 224 234 233 233 243 245 248 260 295 286 307 363 436 434 430 415 403 390 385 381 371
242 240 243 240 234 234 235 236 233 232 230 229 229 224 223 220 224 236 231 234 227 231 238 245 237 242 252 262 270 297 299 320 304 419 415 406 397 398 386 385 375 370 355 358